Location: ??
(34.7252°N, 135.5457°E)
Time: 17:46:42
(UTC+00:00)

Hubble Space Telescope - Pass Details

Date: 24 September 2020
Orbit: 536 x 540 km, 28.5° (Epoch: 28 October)

Event Time Altitude Azimuth Distance (km) Brightness Sun altitude
Exits shadow 19:07:42 12° 174° (S) 1,647 3.1 -21.2°
Maximum altitude 19:08:43 13° 158° (SSE) 1,593 3.2 -21.0°
Drops below altitude 10° 19:10:37 10° 130° (SE) 1,774 3.9 -20.6°
Sets 19:13:57 0° 102° (ESE) 2,666 5.4 -20.0°
